SCP
2 2 2 2 2 2 2 2 2 2 1 1 1 1 1 2 2 2 1 0 0 0 0 0 0 0 0 0 0 0 0 0 0 0 0 0 0 0
3 2 2 2 2 2 2 2 2 2 2 1 1 1 2 3 3 3 1 0 0 0 0 0 0 0 0 0 0 0 0 0 0 0 0 0 0 0
3 3 2 2 2 2 2 2 3 3 3 2 1 2 3 4 4 3 1 1 0 0 0 0 0 0 0 0 0 0 0 0 0 0 0 0 0 0
3 3 3 3 3 2 2 2 3 3 3 3 2 2 3 5 5 4 1 1 0 0 0 0 0 0 0 0 0 0 0 0 0 0 0 0 0 0
3 3 3 3 3 3 3 3 3 3 3 3 3 3 4 6 6 4 2 1 0 0 0 0 0 0 0 0 0 0 0 0 0 0 0 0 0 0
3 3 3 3 3 3 3 3 4 4 4 3 3 4 5 6 6 5 2 1 1 0 0 0 0 0 0 0 0 0 0 0 0 0 0 0 0 0
3 3 3 3 2 2 2 3 4 4 4 3 4 5 6 6 6 6 4 2 1 1 0 0 0 0 0 0 0 0 0 0 0 0 0 0 0 0
3 2 2 2 2 2 2 2 3 3 4 4 4 5 5 6 5 5 4 2 1 0 0 0 0 0 0 0 0 0 0 0 0 0 0 0 0 0
3 3 2 2 2 2 2 2 3 2 3 4 4 4 4 4 4 4 3 1 1 0 0 0 0 0 0 0 0 0 0 0 0 0 0 0 0 0
3 3 3 3 3 3 3 4 3 2 2 2 3 3 3 3 2 2 2 1 0 0 0 0 0 0 0 0 0 0 0 0 0 0 0 0 0 0
3 3 3 3 3 3 3 4 4 3 1 1 1 1 1 1 1 1 1 1 0 0 0 0 0 0 0 0 0 0 0 0 0 0 0 0 0 0
5 5 4 3 2 2 3 4 4 3 1 1 0 0 0 0 0 1 1 0 0 0 0 0 0 0 0 0 0 0 0 0 0 0 0 0 0 0
7 7 6 3 1 1 2 3 3 3 2 1 1 1 0 0 0 0 0 0 0 0 0 0 0 0 0 0 0 0 0 0 0 0 0 0 0 0
7 6 5 2 1 0 1 2 2 2 2 1 1 1 1 0 0 0 0 0 0 0 0 0 0 0 0 0 0 0 0 0 0 0 0 0 0 0
5 4 2 1 0 0 0 0 1 1 2 2 1 1 1 0 0 0 0 0 0 0 0 0 0 0 0 0 0 0 0 0 0 0 0 0 0 0
3 3 2 1 1 1 1 1 1 2 2 2 2 2 1 0 0 0 0 0 0 0 0 0 0 0 0 0 0 0 0 0 0 0 0 0 0 0
3 3 4 4 4 3 3 3 2 2 3 3 3 2 1 0 0 0 0 0 0 0 0 0 0 0 0 0 0 0 0 0 0 0 0 0 0 0
3 4 6 7 7 6 5 5 4 3 3 3 4 3 1 0 0 0 0 0 0 0 0 0 0 0 0 0 0 0 0 0 0 0 0 0 0 0
3 4 5 7 7 6 5 5 4 4 4 3 3 3 1 0 0 0 0 0 0 0 0 0 0 0 0 0 0 0 0 0 0 0 0 0 0 0
3 3 4 5 5 5 5 4 4 4 4 3 3 2 1 0 0 0 0 0 0 0 0 0 0 0 0 0 0 0 0 0 0 0 0 0 0 0
3 3 3 3 4 4 4 4 4 3 3 3 2 2 1 0 0 1 1 0 0 0 0 0 0 0 0 0 0 0 0 0 0 1 0 0 0 0
2 2 2 3 3 3 4 4 3 3 3 2 1 1 0 0 1 1 1 0 0 0 0 0 0 0 0 0 0 0 0 0 1 0 0 0 0 0
2 2 2 2 2 3 3 4 3 3 3 2 1 0 0 0 1 1 1 1 0 0 0 0 0 0 0 0 0 0 0 0 0 0 0 0 0 0
Wind_Speed
3 3 2 1 2 2 2 2 2 2 2 3 2 3 2 3 3 4 6 9 8 7 6 6 6 6 6 6 6 6 7 7 6 6 5 5 4 4
1 1 1 1 1 1 2 2 2 2 1 3 2 3 3 3 5 5 6 9 9 8 7 7 7 7 7 7 7 7 7 7 6 6 6 5 5 5
1 1 1 1 1 1 1 1 1 1 3 3 3 4 3 3 4 4 4 3 6 9 8 8 8 8 8 8 8 7 7 7 7 6 6 6 6 6
2 2 1 2 2 1 1 2 2 2 3 4 4 4 4 4 4 3 3 3 5 9 8 8 8 8 8 8 7 7 6 6 6 6 6 7 7 6
2 2 2 2 2 2 1 2 2 3 3 4 5 3 3 3 4 3 3 2 3 7 8 8 7 7 7 7 7 6 6 6 5 6 6 6 6 7
2 2 2 2 3 3 3 3 3 4 4 4 4 4 4 4 3 3 3 3 2 3 4 5 6 6 6 5 5 5 5 5 5 5 5 5 5 6
2 2 2 3 3 1 1 3 4 3 4 4 4 4 3 3 3 2 2 3 3 1 2 3 3 3 4 5 4 4 4 4 4 4 4 4 4 4
3 3 4 5 6 5 4 4 2 3 3 3 3 4 4 3 2 2 2 2 2 2 1 2 2 2 2 2 5 5 4 3 3 3 3 3 3 3
3 3 3 4 6 6 6 6 4 2 1 2 2 3 3 3 3 3 1 1 0 2 2 1 1 1 2 4 7 5 4 3 3 3 2 2 2 2
4 4 4 4 4 4 5 5 4 4 3 2 1 1 2 3 3 3 2 3 2 2 2 2 2 1 2 3 8 6 5 4 4 3 3 3 4 3
4 4 4 4 5 5 5 5 5 5 5 5 4 3 4 3 2 3 3 3 3 3 3 3 2 2 2 3 6 9 7 6 6 5 5 5 5 6
4 4 4 4 6 6 6 5 5 4 4 6 5 5 5 5 5 4 3 3 2 2 3 2 2 2 2 2 2 4 6 7 8 8 7 6 5 6
4 4 4 7 6 6 4 4 4 4 4 4 4 4 4 4 4 3 2 3 3 2 1 2 2 2 3 2 2 2 3 3 5 6 8 8 7 6
3 3 5 9 8 6 5 3 4 4 4 3 3 3 3 3 3 3 2 2 2 2 1 2 3 3 3 3 2 2 3 3 3 3 3 7 9 9
2 4 6 9 9 6 6 5 6 5 3 3 3 3 2 2 3 3 4 3 3 3 2 3 4 3 4 4 3 2 3 3 3 2 3 3 4 4
5 7 8 7 5 4 7 6 5 3 3 3 3 3 3 4 4 3 3 3 3 3 3 3 4 4 4 4 4 3 3 3 2 3 3 4 4 4
5 5 5 6 6 5 5 4 4 4 4 4 3 3 3 4 3 3 3 3 4 3 3 4 4 4 4 4 4 3 3 3 3 2 4 5 4 4
5 5 5 5 6 6 6 5 5 5 4 4 4 4 4 4 3 3 3 3 3 3 2 3 4 4 5 4 4 5 4 4 3 3 5 5 5 4
5 5 5 5 5 5 5 5 5 5 4 5 4 4 4 4 4 4 4 4 3 3 3 3 3 4 5 4 4 5 5 4 5 4 4 5 5 4
6 6 5 5 5 5 5 5 5 5 5 5 5 4 5 5 5 5 4 4 4 4 4 4 3 4 5 5 4 3 6 6 5 5 5 5 4 2
6 6 6 5 5 5 5 5 5 5 5 5 5 5 5 5 5 5 4 4 4 5 5 4 3 4 5 5 6 4 3 5 4 4 5 6 5 5
6 6 5 5 5 5 5 5 5 5 5 5 5 5 5 5 5 5 4 4 5 5 5 4 4 5 5 6 6 5 4 3 5 7 7 6 6 6
5 5 5 5 5 5 5 5 6 5 4 4 5 5 5 4 4 4 5 5 5 5 5 5 4 4 5 5 6 5 5 5 4 5 5 8 10 9
Wind_Direction
224 222 246 231 235 225 211 220 222 197 150 125 109 83 71 75 64 85 86 80 74 70 67 68 69 76 83 84 86 89 90 90 89 88 88 86 85 89
236 239 246 221 211 207 204 210 229 218 140 112 114 104 78 90 86 85 91 100 83 78 74 72 73 72 75 81 86 88 90 89 89 88 84 81 74 77
201 185 194 259 232 203 183 174 169 152 139 121 114 112 110 99 96 94 104 107 96 87 83 79 77 76 75 76 77 78 81 85 87 88 88 87 85 86
180 167 172 170 178 204 176 154 137 143 146 137 133 133 128 126 117 117 109 104 101 100 94 87 83 81 79 77 78 78 76 76 81 87 88 87 88 88
177 173 169 161 165 142 162 145 143 140 140 147 141 136 140 140 140 135 112 103 113 121 117 108 97 92 87 84 82 83 82 80 77 77 80 81 82 84
178 172 164 164 159 157 153 154 146 147 148 154 145 147 145 150 167 151 142 137 116 115 106 113 119 117 106 99 96 94 91 88 84 83 81 82 82 82
153 155 138 113 96 113 146 146 154 164 164 161 155 152 147 163 178 177 150 144 132 130 132 132 145 150 141 140 131 116 107 105 101 96 89 89 88 86
162 156 150 149 133 121 99 100 120 168 173 174 164 161 158 170 171 189 164 178 160 152 191 152 163 152 140 126 121 134 143 139 131 119 111 109 105 101
178 180 179 138 151 146 137 140 128 99 127 209 167 171 163 161 183 196 181 234 324 134 218 193 174 167 146 108 122 139 157 166 167 163 160 156 152 151
188 185 178 165 158 156 153 149 149 146 159 189 149 168 140 149 189 207 190 190 188 183 222 234 178 189 166 145 146 158 167 181 191 190 190 191 194 189
192 186 182 175 141 164 170 162 157 149 122 95 74 89 91 133 194 204 192 210 203 182 196 234 200 207 210 193 163 173 185 194 201 204 205 211 216 211
179 174 165 177 152 174 187 173 169 164 155 150 150 161 168 169 195 227 224 232 229 202 165 228 218 221 220 194 186 183 194 195 201 204 204 207 219 236
187 177 156 152 161 176 196 180 162 169 173 175 174 174 175 172 185 200 244 264 262 259 153 222 243 237 255 238 211 218 220 208 202 201 203 204 210 243
205 172 138 148 159 172 181 157 159 194 193 188 190 184 181 179 179 192 205 248 292 295 287 257 264 263 261 258 247 220 231 237 235 232 218 192 208 221
187 112 130 151 160 167 170 175 191 201 201 201 200 190 183 175 182 186 188 198 215 233 225 235 256 259 268 268 263 254 246 239 239 247 249 240 234 224
178 147 150 163 179 162 172 188 205 207 217 213 207 191 181 181 194 193 195 199 207 194 189 216 242 255 260 270 268 261 265 263 249 248 255 254 250 246
166 173 179 177 181 184 187 187 196 196 207 218 218 201 192 191 195 201 217 221 227 218 193 193 203 222 253 270 262 260 261 263 259 254 256 260 253 246
182 196 195 195 195 195 194 189 193 203 207 212 215 210 204 202 201 206 213 229 237 235 228 211 212 220 232 225 250 260 262 266 264 245 256 264 265 257
199 209 208 206 206 206 203 201 200 199 206 213 212 211 213 212 209 213 216 220 231 233 233 232 230 239 251 248 213 225 259 268 265 259 258 264 271 278
216 214 212 210 210 209 209 207 203 200 205 212 212 212 216 217 212 213 215 223 227 228 229 233 240 255 269 281 279 234 217 256 270 278 282 278 274 242
214 216 216 215 214 209 208 210 209 209 211 215 213 214 217 217 218 219 214 205 237 236 235 232 232 240 254 258 263 256 214 203 251 279 289 288 285 274
216 217 216 214 211 208 204 203 205 208 208 214 214 215 217 219 220 225 225 216 221 236 243 239 212 226 242 250 261 264 255 217 210 224 248 266 285 292
219 219 218 213 209 206 207 208 210 211 209 212 214 217 217 216 223 223 222 226 228 232 241 242 233 230 242 252 261 267 270 262 253 239 226 212 219 233